Terug naar catalogus

THORAD AGENA D DEB

ActiefSSO
NORAD 4656·DEBRIS·🇺🇸 United States

Gelanceerd Apr 8, 1970 vanaf Vandenberg Space Force Base

Loading…

Volgende Passages (komende 24 uur)

TLE

VersSource: Space-Track

Epoch: Sep 14, 2026, 03:54 UTC

1 04656U 70025AQ  26257.16251568  .00000262  00000-0  35381-3 0  9994
2 04656  99.3754 149.2482 0025649  86.5460  68.4441 13.68660710805474

Volg THORAD AGENA D DEB in realtime met AllMySat

Download on the App Store